This is the latest recevied weather packets stored in our database for station/object OE6PWE-13. If no packets are shown the sender has not sent any weather packets the latest 10 day(s).
| Time | Temp. | Humidity | Pressure | Rain* | Wind** | Luminosity | Snow |
|---|---|---|---|---|---|---|---|
| 1787968812 | 23.33° C | 75% | 1013 hPa | 0 mm | - | - | - |
| 1787967912 | 22.78° C | 75% | 1012 hPa | 0 mm | - | - | - |
| 1787967012 | 23.33° C | 73% | 1012 hPa | 0 mm | - | - | - |
| 1787966112 | 23.33° C | 72% | 1012 hPa | 0 mm | - | - | - |
| 1787965211 | 23.89° C | 71% | 1012 hPa | 0 mm | - | - | - |
| 1787964316 | 23.89° C | 67% | 1011 hPa | 0 mm | - | - | - |
| 1787963411 | 22.78° C | 77% | 1011 hPa | 0 mm | - | - | - |
| 1787962512 | 23.89° C | 72% | 1010 hPa | 0 mm | - | - | - |
| 1787961612 | 23.89° C | 72% | 1010 hPa | 0 mm | - | - | - |
| 1787960712 | 23.89° C | 74% | 1010 hPa | 0 mm | - | - | - |
| 1787959812 | 23.89° C | 72% | 1010 hPa | 0 mm | - | - | - |
| 1787958912 | 23.33° C | 79% | 1010 hPa | 0 mm | - | - | - |
| 1787958011 | 23.33° C | 77% | 1010 hPa | 0 mm | - | - | - |
| 1787957112 | 24.44° C | 81% | 1010 hPa | 0 mm | - | - | - |
| 1787956212 | 22.22° C | 82% | 1012 hPa | 0 mm | - | - | - |
| 1787955311 | 21.11° C | 97% | 1013 hPa | 0 mm | - | - | - |
| 1787954417 | 21.11° C | 96% | 1012 hPa | 0 mm | - | - | - |
| 1787953512 | 21.67° C | 95% | 1012 hPa | 0 mm | - | - | - |
| 1787952611 | 21.67° C | 95% | 1011 hPa | 0 mm | - | - | - |
| 1787951711 | 21.67° C | 94% | 1011 hPa | 0 mm | - | - | - |
| 1787950812 | 21.67° C | 94% | 1011 hPa | 0 mm | - | - | - |
| 1787949912 | 21.67° C | 94% | 1011 hPa | 0 mm | - | - | - |
| 1787949011 | 21.67° C | 94% | 1011 hPa | 0 mm | - | - | - |
| 1787948112 | 21.67° C | 94% | 1011 hPa | 0 mm | - | - | - |
| 1787947214 | 21.67° C | 93% | 1011 hPa | 0 mm | - | - | - |
* Rain latest hour (hover to see other rain measurements)
** Current wind speed in m/s (hover to see current wind gust speed)